This is the latest recevied weather packets stored in our database for station/object KC1IUC-15. If no packets are shown the sender has not sent any weather packets the latest 10 day(s).
| Time | Temp. | Humidity | Pressure | Rain* | Wind** | Luminosity | Snow |
|---|---|---|---|---|---|---|---|
| 1778080803 | 18.89° C | 70% | 1008.6 hPa | 0 mm | - | 152 W/m² | - |
| 1778080503 | 18.89° C | 69% | 1008.6 hPa | 0 mm | - | 155 W/m² | - |
| 1778080203 | 18.89° C | 69% | 1008.9 hPa | 0 mm | - | 127 W/m² | - |
| 1778079904 | 19.44° C | 69% | 1008.6 hPa | 0 mm | - | 131 W/m² | - |
| 1778079603 | 19.44° C | 68% | 1008.6 hPa | 0 mm | - | 164 W/m² | - |
| 1778079304 | 19.44° C | 68% | 1008.9 hPa | 0 mm | - | 176 W/m² | - |
| 1778079004 | 19.44° C | 68% | 1008.6 hPa | 0 mm | - | 158 W/m² | - |
| 1778078704 | 19.44° C | 68% | 1008.9 hPa | 0 mm | - | 140 W/m² | - |
| 1778078403 | 19.44° C | 69% | 1008.6 hPa | 0 mm | - | 205 W/m² | - |
| 1778078103 | 18.89° C | 69% | 1008.6 hPa | 0 mm | - | 188 W/m² | - |
| 1778077803 | 19.44° C | 69% | 1008.9 hPa | 0 mm | - | 161 W/m² | - |
| 1778077503 | 19.44° C | 68% | 1008.9 hPa | 0 mm | - | 154 W/m² | - |
| 1778077204 | 19.44° C | 68% | 1008.9 hPa | 0 mm | - | 182 W/m² | - |
| 1778076903 | 19.44° C | 69% | 1008.9 hPa | 0 mm | - | 247 W/m² | - |
| 1778076603 | 19.44° C | 68% | 1008.9 hPa | 0 mm | - | 288 W/m² | - |
| 1778076304 | 19.44° C | 69% | 1008.9 hPa | 0 mm | - | 308 W/m² | - |
| 1778076003 | 18.89° C | 69% | 1008.9 hPa | 0 mm | - | 278 W/m² | - |
| 1778075703 | 18.89° C | 70% | 1008.9 hPa | 0 mm | - | 299 W/m² | - |
| 1778075403 | 19.44° C | 70% | 1009.3 hPa | 0 mm | - | 239 W/m² | - |
| 1778075103 | 18.33° C | 72% | 1008.9 hPa | 0 mm | - | 294 W/m² | - |
| 1778074803 | 18.33° C | 72% | 1008.9 hPa | 0 mm | - | 316 W/m² | - |
| 1778074504 | 18.89° C | 71% | 1008.9 hPa | 0 mm | - | 223 W/m² | - |
| 1778074204 | 18.33° C | 72% | 1008.9 hPa | 0 mm | - | 289 W/m² | - |
| 1778073903 | 18.89° C | 73% | 1008.9 hPa | 0 mm | - | 276 W/m² | - |
| 1778073603 | 18.33° C | 73% | 1008.9 hPa | 0 mm | - | 240 W/m² | - |
* Rain latest hour (hover to see other rain measurements)
** Current wind speed in m/s (hover to see current wind gust speed)